Temp
64 64 64 64 64 64 64 64 64 64 64 64 64 64 63 63 63 61 63 71 70 70 69 67 66 65 65 61 62 57 47 43 47 49 53 59 58 63 62 58 59 64 60 64 61
63 63 63 64 63 64 64 64 64 64 63 64 64 63 63 63 59 61 72 72 71 70 68 65 62 63 58 58 58 52 44 49 55 55 52 57 55 58 58 59 57 59 64 62 60
63 63 63 63 63 63 64 64 63 63 63 63 63 63 62 60 61 65 72 72 71 69 69 67 66 64 55 55 55 52 49 54 57 59 58 57 57 57 53 55 59 61 59 62 59
62 62 62 62 63 63 63 63 63 63 63 63 63 63 62 59 53 65 70 71 70 68 67 65 61 56 53 52 58 49 57 58 59 59 57 55 58 57 57 62 64 62 61 60 61
61 61 61 62 62 63 63 63 63 63 62 63 63 62 59 57 62 67 68 68 67 67 63 62 58 57 51 53 55 51 54 58 59 59 57 57 56 55 58 63 62 62 63 60 59
61 61 61 61 61 62 63 63 63 62 62 63 63 61 56 53 67 69 67 65 67 65 62 62 60 61 55 54 53 53 54 56 58 59 57 57 53 54 61 57 62 62 59 54 52
61 60 60 61 61 62 62 62 62 62 62 63 63 61 56 61 66 67 68 65 66 65 62 62 62 59 56 52 58 54 51 54 55 55 55 55 51 52 61 58 60 59 53 51 51
60 60 60 60 61 61 62 62 62 62 62 63 63 57 56 65 64 66 66 64 65 65 64 64 64 61 57 57 55 49 46 43 54 54 53 54 46 58 62 56 58 54 47 48 48
60 59 60 60 60 60 61 61 61 62 63 63 56 53 57 67 63 64 64 63 64 63 64 69 61 55 54 46 42 42 38 41 49 54 53 50 46 56 60 55 55 49 45 47 46
60 59 60 60 60 60 61 61 62 61 61 63 64 52 58 59 61 63 62 65 60 58 57 56 50 45 43 42 37 40 38 42 42 51 49 46 46 53 56 55 51 43 43 44 44
60 60 60 60 60 61 60 57 56 54 55 57 56 56 59 60 63 60 62 61 58 54 47 48 44 41 46 46 47 43 41 41 44 51 46 46 46 52 52 48 44 43 43 43 43
60 60 60 60 61 61 57 54 55 55 51 59 58 59 61 62 55 57 63 55 52 47 48 44 40 50 49 48 46 43 40 40 46 49 46 45 46 42 45 44 44 43 41 42 42
59 59 60 60 60 57 55 56 60 56 47 54 57 57 57 60 54 55 59 53 49 45 45 42 48 51 50 46 45 43 41 40 43 44 44 41 41 41 44 44 45 43 42 42 40
59 59 60 60 56 57 56 60 59 57 41 47 51 54 56 57 50 57 57 54 48 46 45 44 50 49 45 45 46 40 46 45 42 38 33 40 30 38 41 39 40 39 37 37 38
59 59 59 60 55 55 59 59 58 55 32 50 49 58 55 51 51 50 55 51 46 46 45 44 44 44 43 46 47 43 45 43 40 36 32 33 31 36 40 36 36 36 37 37 38
59 59 59 58 57 60 61 60 58 44 31 44 49 48 47 48 49 50 50 52 50 45 44 45 47 47 48 47 47 47 43 40 36 34 26 33 34 33 37 39 36 37 37 39 38
58 58 57 61 56 61 60 56 41 35 48 43 43 46 45 44 44 46 44 42 41 36 36 41 43 45 47 42 43 42 37 29 25 23 26 34 30 36 37 39 40 36 36 36 37
58 57 57 60 59 59 56 47 35 41 42 48 46 45 43 45 44 44 41 39 43 40 37 35 34 43 46 44 42 38 38 27 18 21 24 32 29 34 36 38 39 38 37 37 37
56 53 54 56 59 59 51 39 41 45 48 46 46 40 40 45 44 42 39 39 44 44 39 34 35 42 43 43 46 38 34 38 29 29 27 29 30 35 36 35 36 36 36 36 36
50 50 50 56 58 55 47 42 46 51 51 49 40 43 37 42 43 40 38 42 43 45 44 41 32 40 41 42 40 39 42 31 28 14 20 26 28 30 31 33 35 34 35 36 37
49 45 51 54 54 47 41 42 45 52 53 47 43 43 42 42 42 38 40 42 43 42 45 40 37 34 38 36 36 34 33 34 35 28 18 15 26 36 36 36 34 35 37 37 37
47 41 51 53 43 42 38 42 47 47 48 47 47 45 42 43 41 39 39 43 46 45 40 41 36 25 33 37 39 37 36 35 29 25 25 26 29 40 39 38 38 38 39 38 38
43 41 50 50 37 37 41 42 44 43 44 44 42 45 46 43 38 39 40 41 43 43 40 41 30 17 26 33 34 33 33 34 32 28 20 24 26 38 36 36 37 37 38 37 37
41 36 41 44 43 41 38 40 41 45 45 46 44 44 41 39 42 38 36 39 40 39 45 44 30 27 27 29 31 27 30 31 28 18 19 26 26 31 34 35 35 36 36 34 34
40 37 41 35 39 39 42 41 40 38 44 46 41 41 40 35 36 35 36 35 38 41 38 38 26 30 28 30 29 28 28 29 28 29 22 30 28 35 35 33 35 35 31 32 33
36 35 38 37 42 39 39 36 38 41 41 39 39 41 42 38 37 32 34 34 34 33 34 33 21 25 18 30 32 27 30 29 30 31 29 30 29 40 36 33 30 32 32 32 32
38 39 37 36 36 36 36 37 38 42 38 41 43 38 37 39 39 37 37 37 36 33 31 29 22 18 18 25 22 15 22 30 33 31 30 25 30 23 27 32 31 31 31 32 33
MSLP
1020.55 1020.43 1020.32 1020.19 1020.04 1019.93 1019.76 1019.56 1019.39 1019.24 1019.08 1018.88 1018.63 1018.39 1018.18 1017.90 1017.35 1017.21 1016.51 1015.40 1015.30 1015.47 1015.70 1015.82 1015.86 1015.92 1016.06 1016.44 1016.69 1017.27 1018.50 1018.47 1017.48 1016.73 1016.22 1015.60 1015.39 1014.56 1014.34 1014.25 1014.24 1013.87 1013.91 1013.93 1014.00
1020.60 1020.52 1020.43 1020.27 1020.09 1019.93 1019.77 1019.60 1019.38 1019.23 1019.03 1018.83 1018.57 1018.34 1018.12 1017.92 1017.61 1016.73 1015.49 1015.24 1015.23 1015.41 1015.75 1015.98 1016.11 1016.19 1016.64 1016.84 1017.06 1017.71 1018.61 1017.91 1016.91 1016.49 1016.32 1015.92 1015.72 1015.40 1015.17 1014.87 1014.41 1014.31 1014.14 1014.17 1014.47
1020.62 1020.46 1020.38 1020.33 1020.16 1019.95 1019.76 1019.55 1019.34 1019.14 1018.96 1018.73 1018.55 1018.29 1018.20 1018.03 1017.58 1015.98 1015.49 1015.45 1015.48 1015.57 1015.64 1015.89 1016.04 1016.34 1016.76 1016.92 1017.13 1017.53 1017.78 1017.35 1016.58 1016.34 1016.22 1015.89 1015.75 1015.56 1015.51 1015.24 1014.70 1014.67 1014.58 1014.59 1014.94
1020.40 1020.31 1020.21 1020.09 1020.00 1019.84 1019.64 1019.45 1019.21 1019.05 1018.86 1018.62 1018.42 1018.25 1018.15 1018.06 1017.24 1015.64 1015.50 1015.58 1015.71 1015.81 1015.86 1015.93 1016.18 1016.59 1016.87 1017.04 1016.94 1017.46 1016.99 1016.81 1016.40 1016.11 1016.21 1016.06 1015.86 1015.64 1015.67 1014.89 1014.43 1014.79 1014.94 1014.93 1015.11
1020.18 1020.10 1020.00 1019.90 1019.78 1019.67 1019.48 1019.29 1019.08 1018.86 1018.70 1018.48 1018.29 1018.23 1018.08 1017.77 1016.39 1015.58 1015.53 1015.62 1015.77 1015.94 1016.09 1016.22 1016.40 1016.62 1016.91 1016.93 1017.01 1017.18 1017.10 1016.84 1016.50 1016.24 1016.11 1016.02 1016.03 1016.06 1015.39 1014.65 1014.72 1014.76 1015.08 1015.71 1015.85
1019.92 1019.93 1019.88 1019.72 1019.66 1019.47 1019.35 1019.17 1018.96 1018.70 1018.48 1018.37 1018.22 1018.26 1018.21 1017.35 1015.43 1015.48 1015.66 1015.82 1015.81 1015.96 1016.08 1016.25 1016.39 1016.52 1016.86 1017.00 1017.15 1017.18 1017.16 1016.89 1016.44 1016.03 1016.09 1016.09 1015.96 1016.01 1014.64 1014.70 1014.84 1015.04 1016.27 1016.77 1017.15
1019.65 1019.69 1019.64 1019.58 1019.50 1019.33 1019.15 1018.96 1018.76 1018.52 1018.30 1018.13 1018.11 1018.23 1017.90 1016.39 1015.52 1015.62 1015.66 1015.71 1015.74 1015.89 1016.10 1016.22 1016.23 1016.54 1017.06 1017.16 1017.18 1017.29 1017.41 1017.09 1016.10 1015.97 1015.91 1015.93 1016.16 1015.88 1014.66 1014.90 1015.32 1016.22 1017.29 1017.89 1018.19
1019.36 1019.40 1019.38 1019.34 1019.28 1019.16 1018.93 1018.68 1018.52 1018.36 1018.11 1017.98 1018.08 1018.18 1016.97 1015.63 1015.66 1015.68 1015.65 1015.81 1015.88 1015.98 1016.07 1016.13 1016.15 1016.61 1017.08 1017.42 1017.61 1017.85 1017.96 1017.67 1016.28 1015.92 1015.84 1016.00 1016.06 1015.38 1014.80 1015.27 1015.82 1017.14 1018.24 1018.75 1019.14
1019.06 1019.08 1019.03 1019.02 1019.04 1018.94 1018.69 1018.41 1018.17 1018.11 1018.10 1018.08 1018.24 1018.00 1016.62 1015.64 1015.76 1015.79 1015.81 1015.96 1016.07 1016.29 1016.35 1016.37 1016.47 1017.18 1017.64 1018.39 1018.89 1018.74 1018.54 1018.17 1017.07 1016.34 1016.16 1016.40 1016.53 1015.72 1014.88 1015.92 1016.68 1017.91 1018.92 1019.54 1020.00
1018.79 1018.80 1018.73 1018.66 1018.72 1018.71 1018.46 1018.09 1017.82 1017.91 1018.10 1018.15 1017.94 1018.06 1016.40 1015.76 1015.73 1015.83 1015.91 1016.12 1016.47 1016.74 1017.04 1017.18 1017.75 1018.29 1018.77 1019.10 1019.14 1018.82 1018.80 1018.20 1017.54 1016.71 1016.48 1016.62 1016.68 1016.08 1015.95 1016.56 1017.52 1018.69 1019.62 1020.34 1020.77
1018.42 1018.55 1018.52 1018.38 1018.41 1018.55 1018.48 1018.33 1018.48 1018.31 1017.91 1016.83 1016.56 1016.20 1015.75 1015.94 1015.86 1015.99 1016.03 1016.27 1016.72 1017.27 1017.75 1018.03 1018.61 1018.49 1018.14 1018.21 1018.05 1018.35 1018.52 1018.40 1017.64 1016.99 1017.14 1016.78 1016.96 1016.43 1016.93 1017.11 1018.32 1019.67 1020.43 1020.99 1021.36
1017.90 1018.19 1018.23 1018.17 1018.09 1018.31 1018.70 1018.41 1017.64 1017.74 1017.18 1016.02 1015.97 1015.89 1015.56 1015.61 1016.09 1016.18 1016.14 1016.68 1017.07 1017.60 1018.07 1018.77 1018.45 1017.41 1017.77 1018.07 1018.44 1018.67 1018.71 1018.36 1017.76 1017.15 1017.36 1017.37 1017.34 1017.64 1018.24 1019.23 1020.07 1020.82 1021.57 1022.12 1022.32
1017.35 1017.67 1017.91 1018.02 1017.91 1018.03 1018.03 1017.65 1017.37 1017.50 1017.58 1015.99 1015.49 1015.38 1015.48 1015.60 1015.73 1016.00 1016.32 1016.64 1017.02 1017.70 1018.06 1018.10 1017.41 1017.06 1017.69 1017.88 1018.18 1018.18 1018.43 1018.27 1018.12 1017.78 1017.80 1018.08 1018.22 1018.31 1019.49 1020.38 1021.31 1022.20 1022.76 1023.05 1023.27
1016.78 1017.11 1017.49 1017.92 1018.28 1017.22 1017.34 1017.13 1017.34 1017.58 1017.66 1016.07 1015.53 1015.16 1015.32 1015.46 1016.01 1015.99 1016.12 1016.51 1017.04 1017.28 1018.00 1018.00 1017.04 1017.30 1017.75 1017.84 1017.90 1017.97 1017.63 1017.90 1018.32 1018.82 1019.15 1018.95 1019.30 1018.74 1019.77 1021.30 1022.19 1023.00 1023.57 1023.97 1024.09
1016.08 1016.44 1016.91 1017.37 1017.04 1016.88 1016.54 1016.95 1017.33 1017.71 1017.45 1015.39 1015.32 1015.27 1015.26 1015.72 1016.06 1016.28 1016.28 1016.44 1016.81 1017.10 1017.58 1017.15 1016.93 1016.88 1017.15 1017.07 1017.60 1017.74 1017.64 1018.17 1018.73 1019.45 1020.00 1020.24 1020.76 1019.21 1020.00 1021.63 1022.71 1023.58 1024.06 1024.28 1024.36
1015.35 1015.91 1016.34 1016.88 1017.05 1016.36 1016.39 1016.79 1017.37 1018.09 1016.11 1015.14 1015.09 1015.18 1015.62 1015.82 1016.11 1016.46 1016.53 1016.64 1016.83 1017.06 1017.22 1017.09 1016.70 1016.86 1016.46 1016.69 1017.29 1017.71 1018.31 1019.14 1020.09 1020.72 1020.75 1020.05 1020.72 1019.63 1020.06 1020.76 1022.63 1023.72 1024.18 1024.47 1024.70
1014.38 1014.89 1015.52 1015.46 1015.58 1015.73 1016.42 1016.81 1017.54 1016.54 1014.61 1014.96 1014.99 1015.16 1015.45 1015.99 1016.44 1016.39 1016.61 1016.77 1016.91 1017.47 1017.61 1017.29 1016.78 1016.32 1016.63 1017.07 1017.57 1018.26 1019.47 1020.60 1021.51 1021.97 1021.27 1020.82 1021.54 1019.98 1020.25 1020.58 1021.31 1023.10 1024.13 1024.57 1024.68
1013.42 1013.98 1014.18 1014.48 1014.70 1015.30 1016.16 1016.74 1015.87 1014.63 1014.21 1013.97 1014.28 1014.99 1015.37 1015.56 1016.16 1016.53 1016.67 1016.81 1016.52 1016.82 1017.44 1017.57 1017.32 1016.57 1016.67 1016.86 1017.24 1018.48 1019.57 1020.58 1021.58 1022.51 1022.06 1021.60 1021.26 1020.85 1021.57 1021.73 1022.45 1023.41 1024.12 1024.46 1024.66
1012.48 1013.50 1013.40 1013.69 1014.50 1014.54 1015.36 1015.12 1013.71 1013.52 1013.39 1013.61 1014.28 1014.99 1015.37 1015.20 1015.58 1016.48 1016.83 1016.58 1015.94 1016.16 1017.00 1017.09 1017.18 1016.91 1016.70 1016.92 1017.24 1018.56 1019.46 1020.20 1021.87 1022.94 1023.13 1021.86 1021.45 1021.70 1022.40 1023.03 1023.49 1024.02 1024.22 1024.46 1024.66
1012.29 1013.21 1013.46 1013.63 1013.85 1014.05 1014.04 1013.64 1013.24 1012.88 1012.82 1013.05 1013.66 1014.14 1014.89 1015.00 1015.58 1016.17 1016.61 1015.80 1015.76 1015.57 1016.09 1016.83 1017.35 1017.61 1017.43 1017.34 1017.82 1018.17 1019.07 1020.47 1021.82 1023.09 1023.33 1021.85 1021.40 1021.03 1022.33 1022.86 1023.47 1023.96 1024.01 1024.17 1024.28
1012.44 1013.07 1012.94 1013.24 1013.64 1013.60 1013.11 1013.33 1013.18 1012.91 1013.00 1013.10 1013.32 1013.98 1014.49 1014.82 1015.35 1015.87 1016.02 1015.75 1015.69 1016.10 1016.29 1017.17 1017.74 1018.89 1018.69 1018.48 1018.45 1019.07 1019.25 1020.13 1020.98 1022.09 1022.52 1022.29 1020.46 1019.43 1020.79 1021.74 1022.55 1023.09 1023.44 1023.54 1023.87
1012.28 1013.17 1013.09 1012.83 1013.52 1013.27 1013.10 1013.24 1013.35 1013.16 1013.74 1013.38 1013.39 1013.98 1014.48 1014.84 1015.24 1015.70 1015.87 1015.39 1015.40 1015.66 1016.73 1017.22 1018.22 1019.20 1019.03 1018.71 1018.64 1018.81 1019.18 1019.86 1021.11 1022.00 1022.18 1021.97 1020.15 1019.61 1020.04 1020.93 1021.90 1022.44 1022.73 1023.25 1023.65
1012.32 1013.74 1013.05 1013.01 1013.33 1013.72 1013.59 1013.26 1013.07 1013.62 1013.51 1013.58 1013.95 1014.04 1014.51 1014.66 1015.31 1015.46 1015.66 1015.96 1016.03 1016.20 1016.40 1017.39 1018.91 1020.21 1020.23 1019.94 1019.62 1019.70 1019.90 1020.22 1020.90 1021.65 1021.70 1022.10 1020.24 1020.15 1020.61 1021.24 1021.51 1022.08 1022.57 1023.09 1023.58
1012.69 1014.43 1014.35 1013.69 1013.50 1013.38 1013.56 1013.53 1013.44 1013.10 1013.26 1013.36 1013.79 1014.17 1014.73 1015.00 1015.05 1015.63 1016.44 1016.80 1016.88 1016.91 1017.15 1017.62 1019.04 1020.11 1020.26 1020.35 1020.51 1020.78 1020.82 1021.10 1021.40 1022.30 1021.89 1020.74 1020.61 1020.66 1020.93 1021.21 1021.59 1021.80 1022.09 1022.63 1023.03
1012.60 1012.94 1013.05 1013.22 1013.17 1013.37 1013.24 1013.14 1013.24 1013.11 1013.27 1013.26 1013.97 1014.00 1014.58 1015.49 1015.93 1016.45 1017.07 1017.59 1017.79 1017.84 1018.02 1018.60 1020.19 1021.00 1021.34 1021.40 1021.49 1021.34 1021.24 1021.79 1021.97 1021.75 1021.82 1020.49 1021.17 1019.92 1020.82 1021.28 1021.41 1021.54 1021.97 1022.48 1023.21
1013.29 1013.01 1013.29 1012.80 1012.70 1012.87 1013.14 1013.15 1013.09 1012.92 1013.13 1013.30 1013.54 1014.13 1014.55 1015.05 1015.47 1016.44 1017.12 1017.72 1017.99 1018.95 1019.28 1019.84 1021.18 1022.26 1023.00 1022.85 1022.83 1022.38 1021.31 1021.69 1021.79 1021.59 1021.31 1021.32 1020.65 1020.18 1020.48 1021.05 1021.69 1021.98 1022.27 1022.62 1023.03
1013.90 1013.78 1013.71 1012.90 1012.97 1012.92 1012.38 1012.17 1012.87 1012.93 1013.83 1013.82 1013.92 1014.74 1015.48 1015.96 1016.41 1017.14 1017.61 1017.99 1018.40 1018.99 1020.05 1020.81 1022.09 1023.84 1024.30 1024.29 1024.26 1023.53 1021.39 1021.06 1020.68 1020.81 1021.10 1021.43 1020.64 1021.20 1021.10 1021.45 1021.77 1022.10 1022.42 1022.74 1023.03
Wind_Speed
4 5 5 6 6 7 7 8 9 10 11 11 12 12 12 13 13 1 4 6 2 10 4 3 2 3 4 3 3 3 5 1 3 1 4 5 6 6 4 2 3 3 2 4 1
3 4 5 6 6 6 7 8 9 10 11 12 12 12 12 12 3 4 4 1 4 10 4 5 3 2 2 1 2 5 4 7 4 4 2 3 1 4 4 8 5 4 5 2 3
3 4 5 6 6 7 7 7 8 10 12 12 12 12 11 7 4 2 5 3 5 6 3 3 2 4 1 1 3 4 6 4 4 4 3 4 6 3 1 7 8 9 4 4 3
5 5 6 6 7 7 8 8 9 9 11 12 11 11 9 2 3 1 2 2 0 4 1 3 2 4 3 3 4 2 6 5 4 2 4 3 4 7 6 11 8 7 7 6 7
6 6 6 7 7 8 9 10 10 10 11 11 9 7 3 0 8 1 4 4 4 4 2 2 3 4 4 3 1 3 3 4 4 9 6 2 7 6 11 13 9 8 7 8 7
7 7 7 7 7 8 10 10 11 10 11 8 5 3 1 4 3 5 6 4 4 4 2 4 3 4 2 3 2 1 3 7 7 8 5 5 3 3 10 1 10 8 11 11 11
8 8 8 7 8 8 10 11 12 11 9 7 3 1 1 11 1 4 5 3 4 3 3 1 2 2 2 2 4 2 5 8 7 2 5 6 3 7 12 6 9 8 8 9 11
9 8 8 8 8 9 10 11 10 10 6 3 4 1 7 1 0 2 2 2 2 2 3 1 2 5 2 1 6 3 2 3 4 1 1 5 8 9 10 5 9 9 8 10 13
10 9 8 8 8 10 11 13 11 5 1 5 1 1 7 1 2 1 1 3 4 3 4 2 3 3 4 5 5 4 3 5 8 2 3 3 6 9 12 4 9 8 8 8 9
10 10 9 8 8 9 11 12 1 0 2 2 2 2 2 4 3 2 1 5 3 4 4 4 5 3 3 4 6 6 5 5 6 4 3 5 9 13 11 8 4 9 7 9 11
11 10 10 8 7 6 6 3 2 1 2 9 5 3 4 1 1 1 1 4 3 4 4 1 4 8 13 10 4 3 3 6 5 7 3 6 7 14 7 2 10 7 7 10 11
11 11 10 9 6 3 0 3 3 1 6 7 7 5 3 5 3 2 4 6 4 6 5 4 8 13 3 5 5 5 4 7 7 5 1 5 13 3 8 6 6 7 8 9 10
12 11 11 8 4 1 4 3 1 2 1 7 4 4 4 6 5 7 9 4 5 6 8 8 6 4 8 4 4 6 6 5 8 5 3 3 8 2 6 8 10 11 10 11 9
13 12 11 5 2 3 3 5 3 2 2 6 4 3 2 4 2 1 4 5 3 10 7 6 6 6 3 6 6 7 6 6 3 3 4 2 6 5 4 5 8 8 7 7 7
15 14 12 13 1 4 4 6 5 3 6 3 3 2 3 5 6 1 1 2 5 5 7 7 4 5 5 8 7 8 2 2 1 3 3 3 1 8 7 5 5 5 6 6 6
16 15 14 6 2 2 7 7 3 2 11 4 4 6 5 2 3 3 3 2 1 2 2 6 1 4 8 2 5 3 4 7 5 3 2 8 8 6 6 7 7 6 6 6 6
19 19 14 8 6 9 6 4 3 7 1 6 6 6 5 6 3 5 6 5 6 5 4 1 5 2 2 3 3 4 6 3 4 2 6 3 3 7 8 0 15 14 8 7 6
20 18 10 5 7 14 4 3 11 7 7 3 5 5 7 8 5 6 6 4 6 2 4 5 4 7 4 5 7 5 8 6 7 4 4 4 7 3 4 8 11 8 7 6 6
19 2 4 3 11 9 6 8 8 7 6 9 4 4 5 5 6 4 7 5 8 10 8 6 5 1 2 2 6 4 5 3 6 2 3 5 1 1 4 6 6 7 7 7 6
5 4 2 2 8 7 10 11 5 5 4 5 9 6 8 6 7 8 8 5 5 7 1 5 2 3 1 2 3 5 6 4 3 2 6 5 6 5 8 9 7 7 8 7 7
3 5 4 4 2 3 10 5 3 3 3 4 6 5 6 6 7 6 6 2 4 4 6 5 4 3 3 5 8 1 2 2 3 6 6 2 7 3 10 15 14 10 9 10 8
3 1 3 3 3 2 5 7 4 1 4 2 4 2 5 7 7 7 9 7 8 9 8 5 5 5 8 2 3 2 7 7 6 6 4 2 10 2 8 13 12 11 10 7 6
5 2 2 1 7 6 1 2 5 8 10 9 10 7 6 9 3 7 6 3 3 7 10 8 1 3 8 5 1 5 4 3 5 3 6 5 7 1 5 7 9 7 7 7 7
5 5 3 2 2 7 7 8 8 6 4 4 5 5 5 6 5 4 4 1 4 1 3 5 4 9 10 6 3 3 3 3 5 4 3 10 6 3 5 8 6 8 8 8 9
1 5 6 7 9 6 11 8 13 8 5 8 4 9 8 6 5 6 3 2 4 2 3 5 6 4 1 3 2 4 7 8 8 6 8 13 10 17 8 7 9 7 2 6 7
2 2 1 2 9 17 9 8 8 12 9 6 8 9 10 12 9 8 8 5 6 1 2 3 1 3 3 2 5 8 12 7 13 14 11 15 21 16 7 4 5 7 7 6 6
2 3 2 5 3 9 10 14 9 7 1 1 11 6 7 6 4 4 5 5 5 8 6 5 7 4 6 4 4 10 9 18 14 10 8 12 15 1 4 5 6 7 6 6 6
Wind_Direction
20 15 11 10 7 358 353 350 349 343 341 336 337 334 334 336 319 133 251 225 188 162 156 117 45 13 43 7 13 88 60 229 237 49 295 322 11 323 298 344 349 280 181 271 144
349 346 344 344 344 341 340 339 337 336 334 332 329 328 333 338 324 269 256 19 141 154 109 141 150 119 38 319 13 89 115 227 203 162 267 276 242 307 357 326 283 278 300 38 142
300 311 316 319 323 326 328 330 328 327 328 325 323 321 326 328 335 240 350 272 189 176 107 161 121 141 117 125 204 162 189 217 255 202 204 264 297 211 151 293 249 271 261 281 215
279 291 298 304 312 319 324 327 326 321 321 318 316 313 320 287 279 162 343 50 92 165 13 167 156 138 172 218 193 158 251 231 272 333 322 279 312 308 197 245 261 276 272 264 255
263 270 279 294 306 314 317 319 320 317 314 313 314 321 299 347 253 70 106 104 109 120 156 178 145 162 186 213 321 209 283 280 278 284 258 253 242 248 268 263 286 294 326 352 1
256 267 275 284 296 302 307 312 315 314 313 300 298 343 211 232 130 145 125 125 144 138 164 158 194 194 202 246 179 163 288 276 274 268 264 246 298 146 278 70 308 323 37 51 42
248 255 262 275 284 293 302 307 310 315 312 303 248 186 178 240 129 147 146 167 162 155 156 113 209 147 99 321 320 333 315 316 274 266 229 161 315 228 257 314 292 1 74 64 47
242 245 254 268 282 294 296 298 302 308 319 338 155 166 240 99 279 139 151 66 98 128 118 181 113 126 154 128 359 327 30 328 273 156 173 132 250 272 270 296 298 45 74 55 40
235 232 241 260 279 291 299 302 296 267 52 126 112 180 265 344 139 176 180 155 94 59 37 65 67 120 58 90 358 346 228 212 306 222 125 191 251 267 287 342 302 78 65 62 43
232 231 235 250 275 297 309 307 355 339 193 232 257 13 249 215 146 129 37 128 112 89 42 58 50 86 53 108 219 215 213 239 232 268 32 255 249 261 280 311 359 115 82 68 55
227 231 237 248 272 311 343 345 326 307 222 196 198 231 130 90 71 75 105 106 92 68 150 209 113 206 207 200 184 176 213 239 258 257 224 256 276 290 331 15 101 99 96 81 63
219 228 235 247 269 316 174 236 232 172 298 237 238 264 149 176 118 231 126 141 150 190 124 59 223 231 173 172 206 237 246 258 272 260 186 292 291 40 23 34 71 90 69 70 62
212 216 228 244 292 255 197 221 151 145 226 290 218 189 183 150 204 207 154 157 169 179 194 170 222 150 171 200 185 219 201 234 233 345 296 331 294 183 58 71 64 53 61 60 61
207 207 216 204 261 190 208 178 145 122 345 253 223 229 107 132 219 83 180 161 207 203 158 234 238 187 182 239 184 278 208 227 186 110 228 49 279 304 148 83 64 69 63 62 57
204 201 202 181 281 177 176 140 118 77 282 201 168 154 151 155 133 353 22 82 189 184 122 245 189 152 172 222 156 229 100 131 167 170 74 296 317 259 131 148 132 108 98 92 88
202 202 192 189 199 225 139 122 121 94 241 188 140 166 132 172 151 130 137 57 160 172 192 243 284 178 201 145 168 110 51 37 48 99 285 215 177 266 187 183 148 145 139 126 106
206 202 182 163 199 143 146 123 136 215 244 195 186 164 175 165 174 163 163 172 158 129 230 224 224 241 165 117 54 86 69 312 338 2 231 139 143 252 321 348 154 151 148 129 133
206 196 192 181 152 143 139 169 215 195 209 155 145 128 178 155 208 185 139 200 221 172 131 183 286 172 182 188 179 173 164 164 219 213 268 328 239 288 10 73 103 116 133 140 141
145 126 157 185 173 163 155 201 208 174 186 156 90 145 226 217 148 143 202 207 206 169 178 168 258 159 171 162 133 187 177 171 106 354 283 246 64 49 73 80 115 135 143 175 163
128 123 166 177 182 173 184 208 216 202 148 149 175 156 185 200 162 172 183 211 211 176 165 217 140 239 185 101 53 149 168 82 4 168 241 273 264 207 188 179 172 174 192 194 196
72 142 144 219 167 194 195 193 185 249 151 162 181 135 193 168 187 193 206 255 177 143 131 145 123 255 120 209 186 129 197 176 167 152 177 252 257 218 174 180 182 199 207 205 201
107 159 189 250 132 140 142 161 180 97 313 57 75 97 181 201 178 204 210 209 170 155 160 193 141 179 199 291 297 214 191 167 188 225 242 168 263 338 181 173 174 199 214 214 194
94 3 335 348 180 202 243 286 192 201 195 187 197 185 192 183 202 202 207 11 195 167 165 177 217 31 343 345 270 205 199 151 106 70 207 194 243 8 155 166 203 194 229 220 175
113 141 302 215 143 189 167 197 204 197 191 161 178 144 150 189 222 204 160 324 3 103 73 101 146 173 218 186 141 188 174 141 120 138 195 227 288 146 208 198 244 267 240 200 183
355 168 173 182 203 179 185 178 200 182 215 167 215 191 165 194 184 197 146 132 8 60 79 138 192 173 48 129 153 225 206 178 201 197 198 266 233 261 219 234 250 260 229 176 173
126 127 297 145 189 181 173 205 199 194 163 211 221 188 182 201 180 183 144 181 188 138 114 21 141 88 316 231 223 264 263 202 222 243 245 253 268 266 288 163 165 202 201 190 190
58 10 284 146 164 176 206 200 212 151 277 252 209 139 196 200 109 73 78 84 154 152 163 139 134 108 255 61 52 303 222 235 249 221 224 232 244 248 244 219 221 219 198 191 188